Location: Cambroso
(45.2833°N, 12.0850°E)
Time: 16:19:15
(UTC+00:00)

Cosmos 158 Rocket - Pass Details

Date: 21 January 2021
Orbit: 698 x 794 km, 74.0° (Epoch: 26 February)

Event Time Altitude Azimuth Distance (km) Brightness Sun altitude
Rises 17:31:41 0° 340° (NNW) 3,262 7.4 -15.3°
Reaches altitude 10° 17:34:05 10° 344° (NNW) 2,342 6.6 -15.8°
Maximum altitude 17:39:24 66° 67° (ENE) 860 4.0 -16.7°
Drops below altitude 10° 17:44:45 10° 149° (SSE) 2,356 6.3 -17.6°
Sets 17:47:10 0° 152° (SSE) 3,282 7.1 -18.0°
